Home   Weather   Canberra   Past weeks

Flag for Australia Past Weather in Canberra, Australian Capital Territory, Australia — Yesterday and Last 2 Weeks

64 °F

Passing clouds.

Feels Like: 64 °F
Forecast: 42 / 67 °F
Wind: 14 mph from North

Location: Canberra Airport

Current Time: Oct 24, 2016 at 6:06:33 PM

Latest Report: Oct 24, 2016 at 5:00 PM

Visibility: N/A

Pressure: 30.01 "Hg (28.04 "Hg at 577m altitude)

Humidity: 49%

Dew Point: 45 °F

Location of CanberraLocation

Past Weather in Canberra — Graph


Canberra Temperature Yesterday

Maximum temperature yesterday: 59 °F (at 1:00 PM)
Minimum temperature yesterday: 34 °F (at 1:00 AM)
Average temperature yesterday: 48 °F

High & Low Weather Summary for the Past Weeks

High72 °F (Oct 16, 1:00 PM)100% (Oct 9, 11:30 PM)30.30 "Hg (Oct 9, 11:30 PM)
Low30 °F (Oct 12, 6:00 AM)34% (Oct 13, 5:30 PM)29.62 "Hg (Oct 17, 12:00 AM)
Average51 °F68%30.00 "Hg
* Reported Oct 9 5:00 PM — Oct 24 5:00 PM, Canberra, Weather by CustomWeather, © 2016

Note: Actual official high and low records may vary slightly from our data, if they occured in-between our weather recording intervals... More about our weather records


Canberra Weather History for the Previous 24 Hours

Scroll right to see more
Time TempWeatherWind HumidityBarometerVisibility
5:00 PM
Mon, Oct 24
64 °FPassing clouds.14 mph49%30.01 "HgN/A
4:30 PM63 °FPassing clouds.12 mph49%30.01 "HgN/A
4:00 PM64 °FPassing clouds.13 mph46%30.01 "HgN/A
3:30 PM64 °FPassing clouds.8 mph49%30.01 "HgN/A
3:00 PM64 °FPassing clouds.9 mph52%30.01 "HgN/A
2:30 PM63 °FPassing clouds.6 mph56%30.04 "HgN/A
2:00 PM61 °FPassing clouds.5 mph45%30.04 "HgN/A
1:30 PM61 °FPassing clouds.7 mph45%30.07 "HgN/A
1:00 PM59 °FPassing clouds.5 mph42%30.07 "HgN/A
12:00 PM57 °FPassing clouds.5 mph39%30.09 "HgN/A
11:30 AM55 °FPassing clouds.5 mph41%30.09 "HgN/A
11:00 AM54 °FPassing clouds.7 mph47%30.09 "HgN/A
10:30 AM52 °FPassing clouds.7 mph50%30.12 "HgN/A
10:00 AM50 °FSunny.7 mph54%30.12 "Hg10 mi
9:30 AM50 °FPassing clouds.7 mph58%30.09 "HgN/A
9:00 AM48 °FPassing clouds.8 mph58%30.09 "HgN/A
8:30 AM46 °FPassing clouds.10 mph62%30.09 "HgN/A
8:00 AM45 °FPassing clouds.6 mph71%30.12 "HgN/A
7:00 AM36 °FPassing clouds.No wind93%30.09 "HgN/A
6:30 AM32 °FPassing clouds.No wind93%30.09 "HgN/A
6:00 AM32 °FClear.No wind93%30.07 "Hg10 mi
5:30 AM32 °FClear.2 mph93%30.07 "Hg10 mi
5:00 AM32 °FClear.3 mph93%30.07 "Hg10 mi
4:30 AM34 °FClear.3 mph93%30.07 "Hg10 mi
4:00 AM36 °FClear.3 mph93%30.07 "HgN/A
3:30 AM34 °FClear.5 mph87%30.07 "HgN/A
3:00 AM36 °FClear.5 mph87%30.09 "HgN/A
2:30 AM36 °FClear.1 mph93%30.09 "HgN/A
2:00 AM37 °FClear.No wind87%30.09 "HgN/A
1:30 AM39 °FClear.2 mph81%30.09 "HgN/A
1:00 AM41 °FClear.5 mph81%30.09 "HgN/A
12:30 AM41 °FPassing clouds.7 mph81%30.12 "HgN/A
12:00 AM43 °FClear.3 mph76%30.12 "HgN/A
11:00 PM
Sun, Oct 23
45 °FClear.8 mph71%30.12 "HgN/A
10:30 PM43 °FClear.6 mph71%30.12 "HgN/A
10:00 PM46 °FClear.8 mph62%30.12 "HgN/A
9:00 PM50 °FPassing clouds.8 mph58%30.09 "HgN/A
8:30 PM50 °FOvercast.9 mph62%30.09 "HgN/A
8:00 PM52 °FMostly cloudy.12 mph58%30.09 "HgN/A
7:30 PM52 °FPassing clouds.13 mph54%30.07 "HgN/A
7:00 PM54 °FScattered clouds.10 mph47%30.07 "HgN/A
6:30 PM54 °FScattered clouds.7 mph41%30.07 "HgN/A
6:00 PM55 °FSunny.5 mph51%30.04 "Hg10 mi
Weather by CustomWeather, © 2016

See weather overviewHow to use our weather pages